Weather History for KAXA - June, 2014

Change the Weather History Date:

Friday, June 27, 2014

  Actual Average Record
Temperature  
Mean Temperature 72 °F -  
Max Temperature 78 °F 80 °F 95 °F (2012)
Min Temperature 66 °F 60 °F 55 °F (2003)
Cooling Degree Days 7    
Growing Degree Days 22 (Base 50)    
Moisture  
Dew Point 69 °F    
Average Humidity 89    
Maximum Humidity 100    
Minimum Humidity 65    
Precipitation  
Precipitation 0.04 in - - ()
Sea Level Pressure  
Sea Level Pressure 29.82 in    
Wind  
Wind Speed 12 mph (SSE)    
Max Wind Speed 23 mph    
Max Gust Speed 32 mph    
Visibility 10 miles    
Events      
Averages and records for this station are not official NWS values.
T = Trace of Precipitation, MM = Missing Value Source: NWS Daily Summary

Daily Weather History Graph

Daily Weather History Graph

Search for Another Location

Airport or City:

Trip Planner

Search our weather history database for the weather conditions in past years. The results will help you decide how hot, cold, wet, or windy it might be!

Date:

Astronomy

Jun. 27, 2014 Rise Set
Actual Time 5:39 AM CDT 9:00 PM CDT
Civil Twilight 5:04 AM CDT 9:35 PM CDT
Nautical Twilight 4:18 AM CDT 10:21 PM CDT
Astronomical Twilight 3:21 AM CDT 11:18 PM CDT
Moon 6:13 AM CDT (6/27) 9:03 PM CDT (6/27)
Length of Visible Light 16h 31m
Length of Day
15h 21m
New Moon, 0% of the Moon is Illuminated
Jun 27
New Moon
Jul 5
First Quarter
Jul 12
Full
Jul 18
Last Quarter
Jul 26
New

Hourly Weather History & Observations

Time (CDT) Temp. Dew Point Humidity Pressure Visibility Wind Dir Wind Speed Gust Speed Precip Events Conditions
12:15 AM 68.0 °F 68.0 °F 100% 29.89 in 10.0 mi SSE 8.1 mph - N/A   Overcast
12:35 AM 68.0 °F 66.2 °F 94% 29.89 in 10.0 mi South 11.5 mph - N/A   Overcast
12:55 AM 68.0 °F 66.2 °F 94% 29.89 in 10.0 mi South 8.1 mph - 0.01 in   Scattered Clouds
1:15 AM 68.0 °F 66.2 °F 94% 29.89 in 10.0 mi South 6.9 mph - N/A   Mostly Cloudy
1:35 AM 68.0 °F 66.2 °F 94% 29.89 in 10.0 mi South 5.8 mph - N/A   Overcast
1:55 AM 68.0 °F 66.2 °F 94% 29.89 in 10.0 mi South 8.1 mph - N/A   Overcast
2:15 AM 68.0 °F 66.2 °F 94% 29.88 in 10.0 mi SSE 9.2 mph - N/A   Overcast
2:35 AM 68.0 °F 66.2 °F 94% 29.88 in 10.0 mi South 10.4 mph - N/A   Overcast
2:55 AM 68.0 °F 66.2 °F 94% 29.86 in 10.0 mi SSE 6.9 mph - N/A   Overcast
3:15 AM 68.0 °F 66.2 °F 94% 29.85 in 10.0 mi SE 4.6 mph - N/A   Mostly Cloudy
3:35 AM 66.2 °F 66.2 °F 100% 29.85 in 10.0 mi SE 4.6 mph - N/A   Scattered Clouds
3:55 AM 66.2 °F 66.2 °F 100% 29.86 in 10.0 mi SSE 9.2 mph - N/A   Mostly Cloudy
4:15 AM 66.2 °F 66.2 °F 100% 29.86 in 10.0 mi SSE 6.9 mph 12.7 mph N/A   Mostly Cloudy
4:35 AM 68.0 °F 66.2 °F 94% 29.86 in 10.0 mi SE 6.9 mph - N/A   Overcast
4:55 AM 68.0 °F 66.2 °F 94% 29.85 in 10.0 mi SE 8.1 mph 15.0 mph N/A   Overcast
5:15 AM 68.0 °F 66.2 °F 94% 29.87 in 10.0 mi SSE 10.4 mph 16.1 mph N/A   Overcast
5:35 AM 68.0 °F 66.2 °F 94% 29.85 in 7.0 mi SE 13.8 mph 19.6 mph N/A   Mostly Cloudy
5:55 AM 68.0 °F 66.2 °F 94% 29.86 in 8.0 mi SSE 11.5 mph - 0.01 in   Light Drizzle
6:15 AM 68.0 °F 66.2 °F 94% 29.86 in 10.0 mi SE 9.2 mph - N/A   Overcast
6:35 AM 68.0 °F 66.2 °F 94% 29.85 in 10.0 mi SE 8.1 mph - N/A   Overcast
6:55 AM 68.0 °F 66.2 °F 94% 29.86 in 10.0 mi SE 10.4 mph - N/A   Overcast
7:15 AM 68.0 °F 66.2 °F 94% 29.85 in 10.0 mi SE 13.8 mph - N/A   Scattered Clouds
7:35 AM 68.0 °F 68.0 °F 100% 29.84 in 10.0 mi SSE 10.4 mph 17.3 mph N/A   Clear
7:55 AM 69.8 °F 68.0 °F 94% 29.84 in 10.0 mi SE 11.5 mph - N/A   Partly Cloudy
8:15 AM 69.8 °F 68.0 °F 94% 29.85 in - SSE 8.1 mph 16.1 mph N/A   Unknown
8:35 AM 69.8 °F 68.0 °F 94% 29.85 in 10.0 mi SSE 11.5 mph 17.3 mph N/A   Partly Cloudy
8:55 AM 69.8 °F 68.0 °F 94% 29.85 in 10.0 mi SSE 13.8 mph 20.7 mph N/A   Partly Cloudy
9:15 AM 69.8 °F 68.0 °F 94% 29.85 in 10.0 mi SSE 13.8 mph 20.7 mph N/A   Mostly Cloudy
9:35 AM 69.8 °F 68.0 °F 94% 29.85 in 10.0 mi SSE 13.8 mph 21.9 mph N/A   Mostly Cloudy
9:55 AM 69.8 °F 68.0 °F 94% 29.83 in 10.0 mi SE 16.1 mph - N/A   Mostly Cloudy
10:15 AM 71.6 °F 68.0 °F 88% 29.81 in 10.0 mi SE 10.4 mph 19.6 mph N/A   Scattered Clouds
10:35 AM 71.6 °F 68.0 °F 88% 29.81 in 10.0 mi SSE 15.0 mph 20.7 mph N/A   Mostly Cloudy
10:55 AM 71.6 °F 68.0 °F 88% 29.82 in 10.0 mi SSE 15.0 mph 25.3 mph N/A   Mostly Cloudy
11:15 AM 69.8 °F 68.0 °F 94% 29.82 in 7.0 mi SSE 17.3 mph 23.0 mph N/A   Overcast
11:35 AM 69.8 °F 68.0 °F 94% 29.81 in 3.0 mi SSE 17.3 mph 24.2 mph N/A   Overcast
11:55 AM 68.0 °F 68.0 °F 100% 29.78 in 9.0 mi SE 15.0 mph 26.5 mph 0.02 in   Mostly Cloudy
12:15 PM 69.8 °F 68.0 °F 94% 29.78 in 10.0 mi SE 17.3 mph 28.8 mph N/A   Scattered Clouds
12:35 PM 69.8 °F 68.0 °F 94% 29.81 in 10.0 mi South 20.7 mph 32.2 mph N/A   Mostly Cloudy
12:55 PM 71.6 °F 68.0 °F 88% 29.81 in 10.0 mi SSE 18.4 mph 32.2 mph N/A   Overcast
1:15 PM 73.4 °F 69.8 °F 88% 29.80 in 10.0 mi SSE 18.4 mph 25.3 mph N/A   Scattered Clouds
1:35 PM 73.4 °F 69.8 °F 88% 29.81 in 10.0 mi South 20.7 mph - N/A   Partly Cloudy
1:55 PM 75.2 °F 69.8 °F 83% 29.80 in 10.0 mi South 17.3 mph 24.2 mph N/A   Mostly Cloudy
2:15 PM 77.0 °F 69.8 °F 78% 29.80 in 10.0 mi South 20.7 mph - N/A   Mostly Cloudy
2:35 PM 77.0 °F 69.8 °F 78% 29.80 in 10.0 mi South 17.3 mph 26.5 mph N/A   Mostly Cloudy
2:55 PM 77.0 °F 69.8 °F 78% 29.79 in 10.0 mi SE 16.1 mph - N/A   Scattered Clouds
3:15 PM 77.0 °F 69.8 °F 78% 29.80 in 10.0 mi SSE 17.3 mph 24.2 mph N/A   Mostly Cloudy
3:35 PM 77.0 °F 68.0 °F 74% 29.81 in 10.0 mi South 16.1 mph - N/A   Mostly Cloudy
3:55 PM 78.8 °F 66.2 °F 65% 29.81 in 10.0 mi South 23.0 mph - N/A   Mostly Cloudy
4:15 PM 78.8 °F 66.2 °F 65% 29.81 in 10.0 mi South 17.3 mph 26.5 mph N/A   Clear
4:35 PM 77.0 °F 66.2 °F 69% 29.80 in 10.0 mi South 18.4 mph 24.2 mph N/A   Partly Cloudy
4:55 PM 77.0 °F 66.2 °F 69% 29.80 in 10.0 mi South 17.3 mph - N/A   Scattered Clouds
5:15 PM 78.8 °F 68.0 °F 69% 29.80 in 10.0 mi South 16.1 mph - N/A   Partly Cloudy
5:35 PM 77.0 °F 68.0 °F 74% 29.80 in 10.0 mi South 17.3 mph - N/A   Partly Cloudy
5:55 PM 78.8 °F 69.8 °F 74% 29.80 in 10.0 mi South 15.0 mph 21.9 mph N/A   Partly Cloudy
6:15 PM 78.8 °F 69.8 °F 74% 29.80 in 10.0 mi South 16.1 mph - N/A   Scattered Clouds
6:35 PM 78.8 °F 71.6 °F 78% 29.79 in 10.0 mi SSE 13.8 mph - N/A   Mostly Cloudy
6:55 PM 78.8 °F 71.6 °F 78% 29.79 in 10.0 mi South 16.1 mph - N/A   Scattered Clouds
7:15 PM 78.8 °F 71.6 °F 78% 29.79 in 10.0 mi SSE 15.0 mph 20.7 mph N/A   Mostly Cloudy
7:35 PM 77.0 °F 71.6 °F 83% 29.79 in 10.0 mi South 15.0 mph 21.9 mph N/A   Overcast
7:55 PM 77.0 °F 71.6 °F 83% 29.79 in 10.0 mi SSE 15.0 mph 21.9 mph N/A   Overcast
8:15 PM 77.0 °F 71.6 °F 83% 29.78 in 10.0 mi SSE 13.8 mph 23.0 mph N/A   Mostly Cloudy
8:35 PM 77.0 °F 71.6 °F 83% 29.78 in 10.0 mi SSE 12.7 mph 21.9 mph N/A   Scattered Clouds
8:55 PM 75.2 °F 71.6 °F 89% 29.78 in 10.0 mi SSE 15.0 mph - N/A   Scattered Clouds
9:15 PM 75.2 °F 73.4 °F 94% 29.78 in 10.0 mi SE 15.0 mph - N/A   Partly Cloudy
9:35 PM 75.2 °F 73.4 °F 94% 29.77 in 10.0 mi SSE 16.1 mph 21.9 mph N/A   Clear
9:55 PM 75.2 °F 73.4 °F 94% 29.78 in 10.0 mi SSE 13.8 mph 21.9 mph N/A   Clear
10:15 PM 75.2 °F 73.4 °F 94% 29.78 in 10.0 mi SSE 15.0 mph 24.2 mph N/A   Clear
10:35 PM 75.2 °F 73.4 °F 94% 29.78 in 10.0 mi SSE 12.7 mph 20.7 mph N/A   Partly Cloudy
10:55 PM 75.2 °F 73.4 °F 94% 29.79 in 10.0 mi SSE 12.7 mph 18.4 mph N/A   Clear
11:15 PM 75.2 °F 73.4 °F 94% 29.80 in 10.0 mi SSE 13.8 mph - N/A   Mostly Cloudy
11:35 PM 75.2 °F 73.4 °F 94% 29.80 in 10.0 mi SSE 13.8 mph 19.6 mph N/A   Overcast
11:55 PM 75.2 °F 73.4 °F 94% 29.80 in 10.0 mi SSE 13.8 mph - N/A   Overcast